Weather History for LEMG - October, 2012

Change the Weather History Date:

Wednesday, October 3, 2012

  Actual Average Record
Temperature  
Mean Temperature 67 °F -  
Max Temperature 77 °F 71 °F 89 °F (1999)
Min Temperature 57 °F 56 °F 53 °F (1996)
Cooling Degree Days 2    
Growing Degree Days 17 (Base 50)    
Moisture  
Dew Point 56 °F    
Average Humidity 72    
Maximum Humidity 94    
Minimum Humidity 39    
Precipitation  
Precipitation 0.00 in 0.08 in - ()
Sea Level Pressure  
Sea Level Pressure 30.09 in    
Wind  
Wind Speed 4 mph ()    
Max Wind Speed 9 mph    
Max Gust Speed -    
Visibility 14.3 miles    
Events      
Averages and records for this station are not official NWS values.
T = Trace of Precipitation, MM = Missing Value Source: Averaged Metar Reports

Daily Weather History Graph

Daily Weather History Graph

Search for Another Location

Airport or City:

Trip Planner

Search our weather history database for the weather conditions in past years. The results will help you decide how hot, cold, wet, or windy it might be!

Date:

Astronomy

Oct. 03, 2012 Rise Set
Actual Time 8:15 AM CEST 7:58 PM CEST
Civil Twilight 7:49 AM CEST 8:23 PM CEST
Nautical Twilight 7:19 AM CEST 8:53 PM CEST
Astronomical Twilight 6:49 AM CEST 9:23 PM CEST
Moon 9:47 PM CEST (10/3) 11:19 AM CEST (10/3)
Length of Visible Light 12h 34m
Length of Day
11h 42m
Waning Gibbous, 90% of the Moon is Illuminated
Oct 3
Waning Gibbous
Oct 8
Last Quarter
Oct 15
New
Oct 22
First Quarter
Oct 29
Full

Hourly Weather History & Observations

Time (CEST) Temp. Dew Point Humidity Pressure Visibility Wind Dir Wind Speed Gust Speed Precip Events Conditions
12:00 AM 62.6 °F 60.8 °F 94% 30.15 in - Calm Calm - N/A   Clear
12:30 AM 62.6 °F 59.0 °F 88% 30.15 in - Calm Calm - N/A   Clear
1:00 AM 60.8 °F 59.0 °F 94% 30.15 in - WNW 2.3 mph - N/A   Clear
1:30 AM 60.8 °F 59.0 °F 94% 30.12 in - WNW 3.5 mph - N/A   Clear
2:00 AM 64 °F 59 °F 79% 30.15 in 7 mi WNW 4.6 mph - -  
2:00 AM 62.6 °F 59.0 °F 88% 30.12 in - WNW 4.6 mph - N/A   Clear
2:30 AM 62.6 °F 59.0 °F 88% 30.12 in - WNW 5.8 mph - N/A   Clear
3:00 AM 60.8 °F 59.0 °F 94% 30.12 in - WNW 4.6 mph - N/A   Clear
3:30 AM 60.8 °F 57.2 °F 88% 30.12 in - WNW 8.1 mph - N/A   Clear
4:00 AM 59.0 °F 57.2 °F 94% 30.12 in - WNW 8.1 mph - N/A   Clear
4:30 AM 59.0 °F 57.2 °F 94% 30.12 in - WNW 6.9 mph - N/A   Clear
5:00 AM 59.0 °F 57.2 °F 94% 30.09 in - WNW 6.9 mph - N/A   Clear
5:30 AM 59.0 °F 57.2 °F 94% 30.09 in - WNW 6.9 mph - N/A   Clear
6:00 AM 59.0 °F 57.2 °F 94% 30.09 in - WNW 6.9 mph - N/A   Clear
6:30 AM 59.0 °F 57.2 °F 94% 30.09 in - WNW 9.2 mph - N/A   Clear
7:00 AM 57.2 °F 55.4 °F 94% 30.09 in - WNW 6.9 mph - N/A   Clear
7:30 AM 57.2 °F 55.4 °F 94% 30.09 in - WNW 8.1 mph - N/A   Clear
8:00 AM 59 °F 56 °F 87% 30.12 in 12 mi WNW 8.1 mph - -   Clear
8:00 AM 57.2 °F 55.4 °F 94% 30.09 in - WNW 8.1 mph - N/A   Clear
8:30 AM 57.2 °F 55.4 °F 94% 30.09 in - WNW 6.9 mph - N/A   Clear
9:00 AM 59.0 °F 55.4 °F 88% 30.09 in - WNW 8.1 mph - N/A   Clear
9:30 AM 60.8 °F 57.2 °F 88% 30.12 in - WNW 9.2 mph - N/A   Clear
10:00 AM 62.6 °F 57.2 °F 82% 30.12 in - WNW 6.9 mph - N/A   Clear
10:30 AM 66.2 °F 59.0 °F 78% 30.12 in - WNW 8.1 mph - N/A   Clear
11:00 AM 68.0 °F 59.0 °F 73% 30.12 in - WNW 4.6 mph - N/A   Clear
11:30 AM 71.6 °F 57.2 °F 60% 30.12 in - Variable 2.3 mph - N/A   Clear
12:00 PM 75.2 °F 53.6 °F 47% 30.12 in - East 1.2 mph - N/A   Clear
12:30 PM 73.4 °F 51.8 °F 47% 30.12 in - ESE 4.6 mph - N/A   Clear
1:00 PM 75.2 °F 53.6 °F 47% 30.12 in - SE 5.8 mph - N/A   Clear
1:30 PM 75.2 °F 53.6 °F 47% 30.12 in - ESE 6.9 mph - N/A   Clear
2:00 PM 76 °F 56 °F 39% 30.13 in 19 mi SE 9.2 mph - -   Clear
2:00 PM 75.2 °F 53.6 °F 47% 30.12 in - SE 8.1 mph - N/A   Clear
2:30 PM 75.2 °F 51.8 °F 44% 30.09 in - SE 6.9 mph - N/A   Clear
3:00 PM 75.2 °F 53.6 °F 47% 30.09 in - SE 6.9 mph - N/A   Clear
3:30 PM 75.2 °F 53.6 °F 47% 30.06 in - SE 8.1 mph - N/A   Clear
4:00 PM 75.2 °F 53.6 °F 47% 30.06 in - SE 6.9 mph - N/A   Clear
4:30 PM 75.2 °F 55.4 °F 50% 30.06 in - ESE 5.8 mph - N/A   Clear
5:00 PM 75.2 °F 51.8 °F 44% 30.06 in - SE 4.6 mph - N/A   Clear
5:30 PM 75.2 °F 53.6 °F 47% 30.04 in - SE 4.6 mph - N/A   Clear
6:00 PM 73.4 °F 55.4 °F 53% 30.04 in - SE 4.6 mph - N/A   Clear
6:30 PM 73.4 °F 57.2 °F 57% 30.04 in - SE 3.5 mph - N/A   Clear
7:00 PM 73.4 °F 55.4 °F 53% 30.04 in - Variable 2.3 mph - N/A   Clear
7:30 PM 71.6 °F 59.0 °F 64% 30.04 in - ESE 2.3 mph - N/A   Clear
8:00 PM 71 °F 60 °F 59% 30.06 in 19 mi SE 2.3 mph - -   Clear
8:00 PM 69.8 °F 59.0 °F 68% 30.04 in - SE 2.3 mph - N/A   Clear
8:30 PM 68.0 °F 60.8 °F 78% 30.04 in - East 1.2 mph - N/A   Clear
9:00 PM 68.0 °F 59.0 °F 73% 30.04 in - Calm Calm - N/A   Clear
9:30 PM 68.0 °F 59.0 °F 73% 30.04 in - Calm Calm - N/A   Clear
10:00 PM 66.2 °F 59.0 °F 78% 30.06 in - Calm Calm - N/A   Clear
10:30 PM 66.2 °F 55.4 °F 68% 30.06 in - Calm Calm - N/A   Clear
11:00 PM 64.4 °F 53.6 °F 68% 30.06 in - Calm Calm - N/A   Clear
11:30 PM 62.6 °F 51.8 °F 68% 30.06 in - WNW 2.3 mph - N/A   Clear